Regional Weather Roundup
Issued by NWS Cleveland, OH

Home | Current Version | Previous Version | Graphics & Text | Print | Product List | Glossary On
Versions: 1 2 3 4 5 6 7 8 9 10 11 12 13 14 15 16 17 18 19 20 21 22 23 24 25 26 27 28 29 30 31 32 33 34 35 36 37 38 39 40 41 42 43 44 45 46 47 48 49 50
000
ASUS41 KCLE 271402
RWRCLE
OHIO REGIONAL WEATHER ROUNDUP
NATIONAL WEATHER SERVICE CLEVELAND, OH
1000 AM EDT WED AUG 27 2014

NOTE: "FAIR" INDICATES FEW OR NO CLOUDS BELOW 12,000 FEET WITH NO
SIGNIFICANT WEATHER AND/OR OBSTRUCTIONS TO VISIBILITY.

OHZ001>008-015>018-024>027-034-035-043-044-271500-
   NORTHWEST OHIO

CITY           SKY/WX    TMP DP  RH WIND       PRES   REMARKS
DEFIANCE       PTSUNNY   73  65  75 N8        30.12S
FINDLAY        CLOUDY    74  68  81 CALM      30.10S
TOLEDO EXPRESS CLOUDY    69  66  90 N6        30.10F FOG
TOLEDO EXEC    CLOUDY    73  66  78 NE8       30.11S
LIMA           PTSUNNY   75  69  81 CALM      30.11S
$$

OHZ009>014-019>023-028>033-038-089-271500-
   NORTHEAST OHIO

CITY           SKY/WX    TMP DP  RH WIND       PRES   REMARKS
CLE-HOPKINS    CLOUDY    75  69  81 N3        30.11R
CLE-LAKEFRONT  CLOUDY    74  70  87 N8        30.08S
CUY CO. ARPT   CLOUDY    77  73  88 N7        30.10S FOG
LORAIN-ELYRIA  CLOUDY    78  70  76 CALM      30.10S
ASHTABULA      CLOUDY    70  67  90 N5        30.10S
AKRON-CANTON   PTSUNNY   77  68  73 CALM      30.10F
WOOSTER        CLOUDY    76  69  79 CALM      30.11S
MANSFIELD      PTSUNNY   75  70  84 CALM      30.11F
YOUNGSTOWN     CLOUDY    74  68  81 W5        30.10S
$$

OHZ042-051>053-060>062-070>072-077>081-271500-
  SOUTHWEST OHIO

CITY           SKY/WX    TMP DP  RH WIND       PRES   REMARKS
CINC-COVINGTON PTSUNNY   81  72  74 CALM      30.10F
CINC-LUNKEN    SUNNY     78  73  84 S3        30.10F
HAMILTON       SUNNY     80  71  74 N3        30.10F
DAYTON         MOSUNNY   78  70  76 N3        30.12S
WRIGHT-PAT AFB MOSUNNY   76  70  84 N3        30.10F
DAYTON GENERAL MOSUNNY   78  71  79 CALM      30.10F
WILMINGTON     SUNNY     80  69  69 CALM      30.11S
$$

OHZ036-037-039>041-045>050-054>059-063>069-073>076-082>088-271500-
  CENTRAL AND SOUTHEAST OHIO

CITY           SKY/WX    TMP DP  RH WIND       PRES   REMARKS
COLUMBUS       PTSUNNY   79  67  66 CALM      30.09F
OSU AIRPORT    MOSUNNY   77  69  76 CALM      30.10S
BOLTON FIELD   NOT AVBL
RICKENBACK AFB SUNNY     77  65  67 CALM      30.08F
NEWARK         SUNNY     76  68  76 CALM      30.09F
MARION         CLOUDY    72  69  90 CALM      30.11S FOG
LANCASTER      PTSUNNY   78  69  73 CALM      30.10F
ZANESVILLE     SUNNY     77  68  73 CALM      30.10S
NEW PHILLY     MOSUNNY   76  71  85 CALM      30.10F
$$



USA.gov is the U.S. government's official web portal to all federal, state and local government web resources and services.